IGO882 VOMM-VIDP

Flight info

Callsign IGO882
Flight time 2h 47m
Altitude 38000
Route KAMGU2B KAMGU Q24 BAVOX BAVOX7C
Aircraft A320/M-SDE3FGHIRWY/LB1

Departure

Time 2026-05-06 15:08
Airport Chennai International Airport (VOMM)

Arrival

Time 2026-05-06 17:55
Airport Indira Gandhi International Airport (VIDP)
Time Latitude Longitude Altitude Speed Heading
2026-05-06 14:13 12.99690 80.16973 56 ft 0 kts 26°
2026-05-06 14:53 12.99670 80.16962 55 ft 4 kts 36°
2026-05-06 14:53 12.99650 80.16944 53 ft 4 kts 60°
2026-05-06 14:53 12.99645 80.16921 55 ft 3 kts 115°
2026-05-06 14:53 12.99648 80.16915 54 ft 0 kts 117°
2026-05-06 14:58 12.99641 80.16928 55 ft 4 kts 117°
2026-05-06 14:58 12.99625 80.16961 50 ft 6 kts 116°
2026-05-06 14:58 12.99601 80.17011 55 ft 9 kts 116°
2026-05-06 14:58 12.99566 80.17074 48 ft 11 kts 118°
2026-05-06 14:59 12.99526 80.17154 54 ft 14 kts 116°
2026-05-06 14:59 12.99493 80.17199 55 ft 8 kts 156°
2026-05-06 14:59 12.99425 80.17200 53 ft 11 kts 183°
2026-05-06 14:59 12.99340 80.17194 53 ft 14 kts 192°
2026-05-06 15:00 12.99281 80.17114 55 ft 16 kts 251°
2026-05-06 15:00 12.99239 80.16998 55 ft 19 kts 249°
2026-05-06 15:00 12.99190 80.16865 54 ft 21 kts 248°
2026-05-06 15:00 12.99133 80.16718 55 ft 23 kts 249°
2026-05-06 15:01 12.99073 80.16556 53 ft 25 kts 249°
2026-05-06 15:01 12.99011 80.16453 56 ft 15 kts 199°
2026-05-06 15:01 12.98901 80.16444 56 ft 17 kts 183°
2026-05-06 15:01 12.98787 80.16394 53 ft 19 kts 217°
2026-05-06 15:02 12.98674 80.16304 50 ft 22 kts 217°
2026-05-06 15:02 12.98564 80.16214 53 ft 14 kts 232°
2026-05-06 15:02 12.98522 80.16112 55 ft 17 kts 249°
2026-05-06 15:02 12.98477 80.15992 53 ft 19 kts 249°
2026-05-06 15:03 12.98427 80.15861 55 ft 14 kts 248°
2026-05-06 15:03 12.98383 80.15761 54 ft 17 kts 247°
2026-05-06 15:03 12.98365 80.15640 56 ft 19 kts 282°
2026-05-06 15:03 12.98389 80.15549 53 ft 6 kts 285°
2026-05-06 15:04 12.98390 80.15545 56 ft 0 kts 285°
2026-05-06 15:04 12.98393 80.15535 56 ft 3 kts 285°
2026-05-06 15:05 12.98400 80.15509 56 ft 5 kts 285°
2026-05-06 15:05 12.98412 80.15464 53 ft 10 kts 285°
2026-05-06 15:05 12.98402 80.15390 53 ft 6 kts 251°
2026-05-06 15:05 12.98403 80.15346 50 ft 7 kts 306°
2026-05-06 15:06 12.98440 80.15362 57 ft 8 kts 61°
2026-05-06 15:06 12.98464 80.15425 52 ft 5 kts 69°
2026-05-06 15:06 12.98464 80.15426 52 ft 0 kts 69°
2026-05-06 15:07 12.98465 80.15430 56 ft 3 kts 69°
2026-05-06 15:07 12.98509 80.15550 55 ft 48 kts 70°
2026-05-06 15:07 12.98735 80.16154 56 ft 131 kts 69°
2026-05-06 15:07 12.99104 80.17241 204 ft 179 kts 74°
2026-05-06 15:08 12.99488 80.18431 924 ft 174 kts 74°
2026-05-06 15:08 13.00075 80.19545 1327 ft 189 kts 42°
2026-05-06 15:08 13.01358 80.20021 1540 ft 213 kts 358°
2026-05-06 15:08 13.02895 80.19782 1789 ft 232 kts 346°
2026-05-06 15:09 13.04530 80.19334 2123 ft 253 kts 345°
2026-05-06 15:09 13.06297 80.18813 2637 ft 272 kts 345°
2026-05-06 15:09 13.08134 80.18285 3519 ft 276 kts 346°
2026-05-06 15:09 13.09977 80.17783 4401 ft 279 kts 347°
2026-05-06 15:10 13.11868 80.17296 5283 ft 282 kts 348°
2026-05-06 15:10 13.13796 80.16819 5828 ft 286 kts 348°
2026-05-06 15:10 13.15739 80.16348 5973 ft 286 kts 348°
2026-05-06 15:10 13.17675 80.15884 6002 ft 285 kts 349°
2026-05-06 15:11 13.19601 80.15428 6014 ft 284 kts 348°
2026-05-06 15:11 13.21555 80.15079 6011 ft 284 kts 358°
2026-05-06 15:11 13.23523 80.14959 5989 ft 283 kts 358°
2026-05-06 15:11 13.25489 80.14848 6009 ft 283 kts 358°
2026-05-06 15:12 13.27458 80.14735 6017 ft 284 kts 358°
2026-05-06 15:12 13.29432 80.14618 6018 ft 284 kts 358°
2026-05-06 15:12 13.31397 80.14408 6018 ft 285 kts 349°
2026-05-06 15:12 13.33284 80.13721 6317 ft 292 kts 337°
2026-05-06 15:13 13.35118 80.12905 7208 ft 291 kts 338°
2026-05-06 15:13 13.36993 80.12094 8026 ft 294 kts 339°
2026-05-06 15:13 13.38886 80.11284 8787 ft 297 kts 339°
2026-05-06 15:13 13.40804 80.10463 9512 ft 300 kts 339°
2026-05-06 15:14 13.42739 80.09633 10199 ft 306 kts 339°
2026-05-06 15:14 13.44781 80.08755 10389 ft 329 kts 339°
2026-05-06 15:14 13.46927 80.07828 10832 ft 339 kts 339°
2026-05-06 15:14 13.49112 80.06878 11486 ft 343 kts 338°
2026-05-06 15:15 13.51314 80.05917 12180 ft 345 kts 339°
2026-05-06 15:15 13.53528 80.04954 12852 ft 347 kts 338°
2026-05-06 15:15 13.55763 80.03983 13494 ft 350 kts 338°
2026-05-06 15:15 13.58023 80.03002 14110 ft 354 kts 338°
2026-05-06 15:16 13.60300 80.02012 14709 ft 357 kts 338°
2026-05-06 15:16 13.62598 80.01011 15279 ft 360 kts 337°
2026-05-06 15:16 13.64915 80.00001 15835 ft 363 kts 337°
2026-05-06 15:16 13.67256 79.98983 16378 ft 367 kts 337°
2026-05-06 15:17 13.69619 79.97958 16922 ft 370 kts 337°
2026-05-06 15:17 13.72001 79.96924 17452 ft 373 kts 336°
2026-05-06 15:17 13.74371 79.95895 17946 ft 376 kts 336°
2026-05-06 15:17 13.76793 79.94842 18436 ft 380 kts 336°
2026-05-06 15:18 13.79237 79.93777 18922 ft 383 kts 336°
2026-05-06 15:18 13.81698 79.92703 19401 ft 386 kts 336°
2026-05-06 15:18 13.84185 79.91619 19876 ft 389 kts 336°
2026-05-06 15:18 13.86690 79.90529 20334 ft 392 kts 336°
2026-05-06 15:19 13.89213 79.89430 20778 ft 395 kts 336°
2026-05-06 15:19 13.91754 79.88324 21214 ft 398 kts 336°
2026-05-06 15:19 13.94315 79.87210 21638 ft 401 kts 336°
2026-05-06 15:19 13.96895 79.86086 22046 ft 404 kts 335°
2026-05-06 15:20 13.99489 79.84954 22441 ft 406 kts 335°
2026-05-06 15:20 14.02102 79.83811 22842 ft 409 kts 335°
2026-05-06 15:20 14.04731 79.82664 23224 ft 412 kts 336°
2026-05-06 15:20 14.07384 79.81508 23608 ft 415 kts 335°
2026-05-06 15:21 14.10048 79.80349 23972 ft 417 kts 335°
2026-05-06 15:21 14.12728 79.79181 24309 ft 420 kts 335°
2026-05-06 15:21 14.15425 79.78005 24671 ft 422 kts 335°
2026-05-06 15:21 14.18139 79.76819 25019 ft 424 kts 335°
2026-05-06 15:22 14.20865 79.75626 25352 ft 427 kts 335°
2026-05-06 15:22 14.23602 79.74426 25693 ft 429 kts 335°
2026-05-06 15:22 14.26355 79.73217 26023 ft 431 kts 335°
2026-05-06 15:22 14.29086 79.72019 26341 ft 433 kts 335°
2026-05-06 15:23 14.31871 79.70801 26652 ft 435 kts 335°
2026-05-06 15:23 14.34672 79.69577 26971 ft 437 kts 335°
2026-05-06 15:23 14.37478 79.68349 27270 ft 440 kts 335°
2026-05-06 15:23 14.40302 79.67115 27572 ft 442 kts 335°
2026-05-06 15:24 14.43137 79.65875 27866 ft 444 kts 335°
2026-05-06 15:24 14.45986 79.64627 28148 ft 446 kts 335°
2026-05-06 15:24 14.48844 79.63373 28446 ft 447 kts 335°
2026-05-06 15:24 14.50747 79.62538 28635 ft 449 kts 335°
2026-05-06 15:25 14.54608 79.60846 29013 ft 452 kts 335°
2026-05-06 15:25 14.57506 79.59575 29303 ft 454 kts 335°
2026-05-06 15:25 14.59438 79.58727 29501 ft 456 kts 335°
2026-05-06 15:25 14.62367 79.57440 29795 ft 458 kts 335°
2026-05-06 15:26 14.65303 79.56151 30082 ft 460 kts 335°
2026-05-06 15:26 14.68248 79.54856 30361 ft 461 kts 335°
2026-05-06 15:26 14.71210 79.53555 30635 ft 464 kts 335°
2026-05-06 15:26 14.74185 79.52251 30902 ft 466 kts 335°
2026-05-06 15:27 14.77178 79.50939 31172 ft 467 kts 335°
2026-05-06 15:27 14.80171 79.49626 31548 ft 466 kts 335°
2026-05-06 15:27 14.83154 79.48318 31953 ft 465 kts 335°
2026-05-06 15:27 14.86132 79.47010 32342 ft 465 kts 335°
2026-05-06 15:28 14.89105 79.45704 32726 ft 464 kts 335°
2026-05-06 15:28 14.92071 79.44399 33119 ft 463 kts 335°
2026-05-06 15:28 14.95037 79.43093 33497 ft 462 kts 335°
2026-05-06 15:28 14.98040 79.41904 33860 ft 463 kts 342°
2026-05-06 15:29 15.01168 79.41096 34225 ft 463 kts 345°
2026-05-06 15:29 15.04309 79.40339 34584 ft 463 kts 345°
2026-05-06 15:29 15.07399 79.39597 34925 ft 462 kts 345°
2026-05-06 15:29 15.10528 79.38846 35276 ft 461 kts 345°
2026-05-06 15:30 15.13648 79.38096 35609 ft 460 kts 345°
2026-05-06 15:30 15.16760 79.37346 35928 ft 459 kts 345°
2026-05-06 15:30 15.19871 79.36593 36239 ft 458 kts 345°
2026-05-06 15:30 15.22971 79.35842 36522 ft 458 kts 345°
2026-05-06 15:31 15.26071 79.35093 36795 ft 457 kts 345°
2026-05-06 15:31 15.29168 79.34342 37111 ft 456 kts 345°
2026-05-06 15:31 15.32245 79.33593 37473 ft 453 kts 345°
2026-05-06 15:32 15.38370 79.32104 37793 ft 450 kts 345°
2026-05-06 15:32 15.41419 79.31362 37795 ft 449 kts 345°
2026-05-06 15:32 15.47508 79.29887 37794 ft 449 kts 345°
2026-05-06 15:33 15.53591 79.28420 37795 ft 449 kts 345°
2026-05-06 15:33 15.59670 79.26947 37795 ft 448 kts 345°
2026-05-06 15:34 15.65737 79.25465 37796 ft 448 kts 345°
2026-05-06 15:34 15.71770 79.23993 37801 ft 449 kts 345°
2026-05-06 15:35 15.77885 79.22505 37817 ft 449 kts 345°
2026-05-06 15:35 15.83967 79.21018 37833 ft 449 kts 345°
2026-05-06 15:36 15.90046 79.19535 37844 ft 449 kts 345°
2026-05-06 15:36 15.96135 79.18059 37851 ft 449 kts 345°
2026-05-06 15:37 16.02186 79.16593 37860 ft 449 kts 345°
2026-05-06 15:37 16.08279 79.15119 37852 ft 449 kts 345°
2026-05-06 15:38 16.14366 79.13646 37868 ft 448 kts 345°
2026-05-06 15:38 16.20441 79.12180 37878 ft 448 kts 345°
2026-05-06 15:39 16.26515 79.10714 37878 ft 447 kts 345°
2026-05-06 15:39 16.32583 79.09254 37883 ft 447 kts 345°
2026-05-06 15:40 16.38643 79.07791 37878 ft 447 kts 345°
2026-05-06 15:40 16.44707 79.06315 37881 ft 447 kts 345°
2026-05-06 15:41 16.50757 79.04847 37889 ft 446 kts 345°
2026-05-06 15:41 16.56811 79.03380 37887 ft 446 kts 345°
2026-05-06 15:42 16.62854 79.01918 37888 ft 446 kts 345°
2026-05-06 15:42 16.68904 79.00454 37895 ft 447 kts 345°
2026-05-06 15:43 16.74952 78.98987 37899 ft 446 kts 345°
2026-05-06 15:43 16.80994 78.97512 37903 ft 446 kts 345°
2026-05-06 15:44 16.86995 78.96048 37906 ft 445 kts 345°
2026-05-06 15:44 16.93034 78.94578 37911 ft 445 kts 345°
2026-05-06 15:45 16.99071 78.93110 37914 ft 445 kts 345°
2026-05-06 15:45 17.05104 78.91643 37916 ft 445 kts 345°
2026-05-06 15:46 17.11131 78.90172 37924 ft 445 kts 345°
2026-05-06 15:46 17.17152 78.88699 37927 ft 444 kts 345°
2026-05-06 15:47 17.23172 78.87232 37925 ft 444 kts 345°
2026-05-06 15:47 17.29190 78.85755 37928 ft 444 kts 345°
2026-05-06 15:48 17.35162 78.84292 37925 ft 444 kts 345°
2026-05-06 15:48 17.41173 78.82824 37927 ft 443 kts 345°
2026-05-06 15:49 17.47182 78.81354 37924 ft 444 kts 345°
2026-05-06 15:49 17.53204 78.79888 37917 ft 444 kts 345°
2026-05-06 15:50 17.59217 78.78433 37913 ft 444 kts 345°
2026-05-06 15:50 17.65230 78.76980 37911 ft 444 kts 345°
2026-05-06 15:51 17.71252 78.75518 37910 ft 443 kts 345°
2026-05-06 15:51 17.77223 78.74065 37910 ft 443 kts 345°
2026-05-06 15:52 17.83235 78.72606 37909 ft 443 kts 345°
2026-05-06 15:52 17.89241 78.71147 37907 ft 443 kts 345°
2026-05-06 15:53 17.95244 78.69682 37902 ft 443 kts 345°
2026-05-06 15:53 18.01249 78.68212 37901 ft 443 kts 345°
2026-05-06 15:54 18.07263 78.66743 37904 ft 442 kts 344°
2026-05-06 15:54 18.13257 78.65288 37902 ft 442 kts 344°
2026-05-06 15:55 18.19243 78.63818 37894 ft 442 kts 344°
2026-05-06 15:55 18.25224 78.62327 37898 ft 441 kts 343°
2026-05-06 15:56 18.31202 78.60837 37891 ft 442 kts 344°
2026-05-06 15:56 18.37148 78.59363 37886 ft 441 kts 344°
2026-05-06 15:57 18.43129 78.57881 37884 ft 441 kts 344°
2026-05-06 15:57 18.49111 78.56397 37882 ft 441 kts 344°
2026-05-06 15:58 18.55090 78.54914 37871 ft 441 kts 344°
2026-05-06 15:58 18.61068 78.53427 37870 ft 441 kts 343°
2026-05-06 15:59 18.67030 78.51944 37865 ft 440 kts 343°
2026-05-06 15:59 18.72997 78.50459 37865 ft 440 kts 343°
2026-05-06 16:00 18.78957 78.48970 37861 ft 440 kts 343°
2026-05-06 16:00 18.84877 78.47494 37858 ft 439 kts 343°
2026-05-06 16:01 18.90830 78.46011 37855 ft 439 kts 343°
2026-05-06 16:01 18.96770 78.44529 37852 ft 438 kts 343°
2026-05-06 16:02 19.02700 78.43040 37861 ft 438 kts 343°
2026-05-06 16:02 19.08627 78.41557 37851 ft 437 kts 343°
2026-05-06 16:03 19.14547 78.40076 37843 ft 437 kts 343°
2026-05-06 16:03 19.20454 78.38586 37842 ft 436 kts 342°
2026-05-06 16:04 19.26345 78.37026 37844 ft 435 kts 342°
2026-05-06 16:04 19.32218 78.35451 37841 ft 435 kts 342°
2026-05-06 16:05 19.38093 78.33898 37840 ft 434 kts 342°
2026-05-06 16:05 19.43918 78.32363 37839 ft 434 kts 342°
2026-05-06 16:06 19.49780 78.30819 37839 ft 433 kts 342°
2026-05-06 16:06 19.55630 78.29273 37835 ft 433 kts 341°
2026-05-06 16:07 19.61474 78.27728 37837 ft 432 kts 342°
2026-05-06 16:07 19.67312 78.26200 37839 ft 432 kts 342°
2026-05-06 16:08 19.73149 78.24680 37836 ft 432 kts 341°
2026-05-06 16:08 19.78981 78.23149 37842 ft 431 kts 341°
2026-05-06 16:09 19.84809 78.21613 37845 ft 431 kts 341°
2026-05-06 16:09 19.89648 78.20342 37847 ft 431 kts 341°
2026-05-06 16:10 19.96420 78.18560 37845 ft 431 kts 341°
2026-05-06 16:10 20.02241 78.17029 37844 ft 431 kts 341°
2026-05-06 16:11 20.07113 78.15746 37843 ft 430 kts 341°
2026-05-06 16:11 20.12892 78.14225 37842 ft 430 kts 341°
2026-05-06 16:12 20.18707 78.12697 37845 ft 430 kts 341°
2026-05-06 16:12 20.24519 78.11158 37849 ft 430 kts 341°
2026-05-06 16:13 20.30332 78.09618 37851 ft 431 kts 341°
2026-05-06 16:13 20.36149 78.08080 37854 ft 430 kts 341°
2026-05-06 16:14 20.41966 78.06547 37853 ft 430 kts 341°
2026-05-06 16:14 20.47777 78.05011 37851 ft 430 kts 341°
2026-05-06 16:15 20.53588 78.03470 37853 ft 430 kts 341°
2026-05-06 16:15 20.59364 78.01957 37854 ft 430 kts 342°
2026-05-06 16:16 20.65204 78.00531 37856 ft 431 kts 342°
2026-05-06 16:16 20.71055 77.99131 37861 ft 431 kts 342°
2026-05-06 16:17 20.76899 77.97712 37861 ft 431 kts 342°
2026-05-06 16:17 20.82742 77.96267 37862 ft 431 kts 342°
2026-05-06 16:18 20.88582 77.94820 37861 ft 431 kts 342°
2026-05-06 16:18 20.94428 77.93386 37861 ft 431 kts 342°
2026-05-06 16:19 21.00269 77.91952 37860 ft 430 kts 342°
2026-05-06 16:19 21.06105 77.90516 37869 ft 431 kts 341°
2026-05-06 16:20 21.11904 77.89089 37868 ft 430 kts 341°
2026-05-06 16:20 21.17747 77.87637 37869 ft 430 kts 341°
2026-05-06 16:21 21.23582 77.86197 37879 ft 430 kts 341°
2026-05-06 16:21 21.29412 77.84761 37865 ft 430 kts 341°
2026-05-06 16:22 21.35246 77.83322 37866 ft 430 kts 341°
2026-05-06 16:22 21.41073 77.81873 37865 ft 430 kts 341°
2026-05-06 16:23 21.46907 77.80424 37879 ft 430 kts 341°
2026-05-06 16:23 21.52741 77.78983 37877 ft 430 kts 341°
2026-05-06 16:24 21.58580 77.77537 37870 ft 430 kts 341°
2026-05-06 16:24 21.64417 77.76082 37869 ft 430 kts 341°
2026-05-06 16:25 21.70215 77.74639 37867 ft 430 kts 341°
2026-05-06 16:25 21.76057 77.73189 37866 ft 431 kts 341°
2026-05-06 16:26 21.81904 77.71741 37874 ft 430 kts 341°
2026-05-06 16:26 21.87745 77.70286 37880 ft 431 kts 341°
2026-05-06 16:27 21.93586 77.68829 37871 ft 431 kts 341°
2026-05-06 16:27 21.99424 77.67374 37872 ft 431 kts 341°
2026-05-06 16:28 22.05259 77.65909 37879 ft 431 kts 340°
2026-05-06 16:28 22.11091 77.64415 37870 ft 430 kts 340°
2026-05-06 16:29 22.16819 77.62914 37878 ft 438 kts 340°
2026-05-06 16:29 22.22809 77.61339 37852 ft 449 kts 340°
2026-05-06 16:30 22.27927 77.59994 37860 ft 461 kts 340°
2026-05-06 16:30 22.35312 77.58067 38396 ft 464 kts 340°
2026-05-06 16:31 22.38429 77.57260 38952 ft 458 kts 340°
2026-05-06 16:31 22.41465 77.56480 39496 ft 451 kts 341°
2026-05-06 16:31 22.44496 77.55707 40034 ft 443 kts 341°
2026-05-06 16:31 22.47473 77.54954 40571 ft 436 kts 341°
2026-05-06 16:32 22.50403 77.54218 41104 ft 427 kts 341°
2026-05-06 16:32 22.53271 77.53505 41630 ft 418 kts 341°
2026-05-06 16:32 22.56072 77.52815 42155 ft 408 kts 341°
2026-05-06 16:32 22.58802 77.52150 42673 ft 397 kts 342°
2026-05-06 16:33 22.61462 77.51510 43170 ft 386 kts 342°
2026-05-06 16:33 22.64042 77.50898 43638 ft 373 kts 342°
2026-05-06 16:33 22.66537 77.50314 44055 ft 361 kts 342°
2026-05-06 16:34 22.71439 77.49177 43877 ft 367 kts 342°
2026-05-06 16:34 22.73973 77.48580 43514 ft 377 kts 342°
2026-05-06 16:34 22.76537 77.47972 43549 ft 375 kts 342°
2026-05-06 16:34 22.79058 77.47379 43904 ft 365 kts 342°
2026-05-06 16:35 22.81510 77.46809 44119 ft 359 kts 342°
2026-05-06 16:35 22.83970 77.46237 43932 ft 365 kts 342°
2026-05-06 16:35 22.86449 77.45654 43610 ft 374 kts 342°
2026-05-06 16:36 22.91527 77.44453 43801 ft 367 kts 342°
2026-05-06 16:36 22.93995 77.43877 44043 ft 360 kts 342°
2026-05-06 16:36 22.96446 77.43306 43975 ft 363 kts 342°
2026-05-06 16:36 22.98938 77.42720 43705 ft 370 kts 342°
2026-05-06 16:37 23.01471 77.42119 43588 ft 373 kts 341°
2026-05-06 16:37 23.03993 77.41523 43759 ft 368 kts 341°
2026-05-06 16:37 23.06469 77.40942 43975 ft 361 kts 342°
2026-05-06 16:38 23.11402 77.39787 43760 ft 368 kts 341°
2026-05-06 16:38 23.13917 77.39191 43620 ft 371 kts 341°
2026-05-06 16:38 23.16429 77.38596 43722 ft 367 kts 341°
2026-05-06 16:38 23.18908 77.38014 43917 ft 362 kts 341°
2026-05-06 16:39 23.21360 77.37440 43942 ft 361 kts 341°
2026-05-06 16:39 23.23831 77.36860 43779 ft 366 kts 341°
2026-05-06 16:39 23.26333 77.36268 43634 ft 370 kts 341°
2026-05-06 16:40 23.31319 77.35090 43874 ft 362 kts 341°
2026-05-06 16:40 23.36243 77.33934 43801 ft 364 kts 341°
2026-05-06 16:40 23.38734 77.33345 43670 ft 368 kts 341°
2026-05-06 16:41 23.41237 77.32751 43668 ft 367 kts 341°
2026-05-06 16:41 23.43721 77.32164 43785 ft 363 kts 341°
2026-05-06 16:41 23.46153 77.31591 43855 ft 361 kts 341°
2026-05-06 16:42 23.51105 77.30422 43688 ft 366 kts 341°
2026-05-06 16:42 23.56082 77.29242 43766 ft 364 kts 341°
2026-05-06 16:43 23.61004 77.28081 43805 ft 362 kts 341°
2026-05-06 16:43 23.65965 77.26904 43683 ft 366 kts 341°
2026-05-06 16:44 23.70908 77.25733 43823 ft 361 kts 341°
2026-05-06 16:44 23.75833 77.24568 43714 ft 365 kts 341°
2026-05-06 16:45 23.80799 77.23387 43725 ft 364 kts 340°
2026-05-06 16:45 23.85718 77.22223 43802 ft 361 kts 341°
2026-05-06 16:46 23.90658 77.21050 43681 ft 365 kts 340°
2026-05-06 16:46 23.95598 77.19876 43781 ft 361 kts 340°
2026-05-06 16:47 24.00516 77.18710 43722 ft 363 kts 340°
2026-05-06 16:47 24.05459 77.17534 43755 ft 361 kts 340°
2026-05-06 16:48 24.10318 77.16385 43810 ft 360 kts 340°
2026-05-06 16:48 24.15242 77.15214 43675 ft 363 kts 340°
2026-05-06 16:49 24.20154 77.14047 43794 ft 359 kts 340°
2026-05-06 16:49 24.25049 77.12886 43705 ft 362 kts 340°
2026-05-06 16:50 24.29972 77.11713 43752 ft 360 kts 340°
2026-05-06 16:50 24.34849 77.10557 43785 ft 359 kts 340°
2026-05-06 16:51 24.39760 77.09386 43677 ft 362 kts 340°
2026-05-06 16:51 24.44652 77.08222 43800 ft 358 kts 340°
2026-05-06 16:52 24.49532 77.07062 43693 ft 361 kts 340°
2026-05-06 16:52 24.54409 77.05897 43713 ft 360 kts 340°
2026-05-06 16:53 24.59283 77.04738 43754 ft 358 kts 340°
2026-05-06 16:53 24.64176 77.03570 43658 ft 361 kts 340°
2026-05-06 16:54 24.69063 77.02403 43755 ft 357 kts 340°
2026-05-06 16:54 24.73931 77.01244 43686 ft 359 kts 340°
2026-05-06 16:55 24.78823 77.00072 43677 ft 359 kts 340°
2026-05-06 16:55 24.83693 76.98910 43725 ft 358 kts 339°
2026-05-06 16:56 24.88573 76.97743 43672 ft 359 kts 339°
2026-05-06 16:56 24.93453 76.96574 43701 ft 358 kts 339°
2026-05-06 16:57 24.98318 76.95410 43687 ft 358 kts 339°
2026-05-06 16:57 25.02373 76.94438 43667 ft 359 kts 339°
2026-05-06 16:58 25.07236 76.93273 43709 ft 357 kts 339°
2026-05-06 16:58 25.12101 76.92107 43667 ft 358 kts 339°
2026-05-06 16:59 25.16943 76.90943 43672 ft 358 kts 339°
2026-05-06 16:59 25.21796 76.89780 43708 ft 357 kts 339°
2026-05-06 17:00 25.26650 76.88616 43693 ft 357 kts 339°
2026-05-06 17:00 25.31498 76.87452 43708 ft 356 kts 339°
2026-05-06 17:01 25.36346 76.86288 43705 ft 356 kts 339°
2026-05-06 17:01 25.41188 76.85125 43700 ft 356 kts 339°
2026-05-06 17:02 25.46032 76.83960 43708 ft 356 kts 339°
2026-05-06 17:02 25.50876 76.82795 43707 ft 356 kts 339°
2026-05-06 17:03 25.55715 76.81630 43725 ft 355 kts 339°
2026-05-06 17:03 25.60552 76.80466 43704 ft 356 kts 339°
2026-05-06 17:04 25.65391 76.79299 43706 ft 356 kts 339°
2026-05-06 17:04 25.70195 76.78140 43716 ft 355 kts 339°
2026-05-06 17:05 25.75044 76.76969 43694 ft 356 kts 339°
2026-05-06 17:05 25.79882 76.75800 43711 ft 355 kts 339°
2026-05-06 17:06 25.84706 76.74635 43724 ft 355 kts 339°
2026-05-06 17:06 25.89504 76.73475 43695 ft 355 kts 339°
2026-05-06 17:07 25.94362 76.72299 43701 ft 355 kts 339°
2026-05-06 17:07 25.99152 76.71139 43694 ft 355 kts 339°
2026-05-06 17:08 26.03971 76.69971 43682 ft 355 kts 339°
2026-05-06 17:08 26.08790 76.68803 43684 ft 354 kts 339°
2026-05-06 17:09 26.13608 76.67634 43685 ft 354 kts 339°
2026-05-06 17:09 26.18427 76.66464 43683 ft 354 kts 339°
2026-05-06 17:10 26.23244 76.65294 43685 ft 354 kts 339°
2026-05-06 17:10 26.28056 76.64124 43680 ft 354 kts 339°
2026-05-06 17:11 26.32874 76.62951 43670 ft 354 kts 339°
2026-05-06 17:11 26.37692 76.61777 43672 ft 354 kts 339°
2026-05-06 17:12 26.42507 76.60603 43679 ft 354 kts 339°
2026-05-06 17:12 26.47319 76.59428 43679 ft 354 kts 339°
2026-05-06 17:13 26.52120 76.58256 43703 ft 352 kts 339°
2026-05-06 17:13 26.56912 76.57087 43673 ft 353 kts 339°
2026-05-06 17:14 26.61677 76.55921 43681 ft 353 kts 339°
2026-05-06 17:14 26.66471 76.54748 43673 ft 352 kts 339°
2026-05-06 17:15 26.71268 76.53573 43643 ft 353 kts 339°
2026-05-06 17:15 26.76057 76.52398 43668 ft 352 kts 339°
2026-05-06 17:16 26.80849 76.51222 43662 ft 353 kts 339°
2026-05-06 17:16 26.85640 76.50045 43663 ft 352 kts 339°
2026-05-06 17:17 26.90437 76.48865 43632 ft 353 kts 339°
2026-05-06 17:17 26.95237 76.47681 43646 ft 353 kts 339°
2026-05-06 17:18 27.00025 76.46501 43649 ft 352 kts 339°
2026-05-06 17:18 27.02426 76.45905 43413 ft 360 kts 339°
2026-05-06 17:18 27.04976 76.45254 42039 ft 397 kts 339°
2026-05-06 17:18 27.07820 76.44558 40522 ft 436 kts 346°
2026-05-06 17:19 27.10911 76.44624 39986 ft 453 kts
2026-05-06 17:19 27.13957 76.45732 39505 ft 469 kts 20°
2026-05-06 17:19 27.16691 76.47812 39017 ft 484 kts 37°
2026-05-06 17:19 27.18859 76.50688 38549 ft 496 kts 53°
2026-05-06 17:20 27.20343 76.54273 38063 ft 506 kts 70°
2026-05-06 17:20 27.20941 76.58177 37563 ft 511 kts 87°
2026-05-06 17:20 27.20893 76.62120 37068 ft 510 kts 86°
2026-05-06 17:20 27.21234 76.66059 36570 ft 505 kts 78°
2026-05-06 17:21 27.21751 76.69946 36070 ft 502 kts 78°
2026-05-06 17:21 27.22281 76.73817 35571 ft 500 kts 78°
2026-05-06 17:21 27.22811 76.77675 35064 ft 498 kts 78°
2026-05-06 17:21 27.23339 76.81520 34564 ft 496 kts 78°
2026-05-06 17:22 27.23863 76.85348 34065 ft 494 kts 78°
2026-05-06 17:22 27.24382 76.89157 33563 ft 492 kts 78°
2026-05-06 17:22 27.24899 76.92947 33063 ft 489 kts 78°
2026-05-06 17:22 27.25414 76.96714 32562 ft 485 kts 78°
2026-05-06 17:23 27.25927 77.00448 32064 ft 482 kts 78°
2026-05-06 17:23 27.26439 77.04158 31564 ft 478 kts 78°
2026-05-06 17:23 27.26947 77.07835 31064 ft 474 kts 78°
2026-05-06 17:23 27.27452 77.11476 30563 ft 470 kts 78°
2026-05-06 17:24 27.27934 77.15100 30062 ft 466 kts 81°
2026-05-06 17:24 27.27855 77.18728 29547 ft 466 kts 99°
2026-05-06 17:24 27.26870 77.22179 29062 ft 464 kts 117°
2026-05-06 17:24 27.25069 77.25146 28556 ft 458 kts 135°
2026-05-06 17:25 27.22627 77.27371 28054 ft 449 kts 153°
2026-05-06 17:25 27.19778 77.28666 27553 ft 437 kts 171°
2026-05-06 17:25 27.16799 77.29126 27059 ft 430 kts 179°
2026-05-06 17:25 27.13830 77.29431 26558 ft 427 kts 179°
2026-05-06 17:26 27.10874 77.29722 26045 ft 424 kts 179°
2026-05-06 17:26 27.07935 77.30005 25551 ft 422 kts 179°
2026-05-06 17:26 27.05018 77.30178 25046 ft 416 kts 188°
2026-05-06 17:26 27.02205 77.29626 24545 ft 407 kts 201°
2026-05-06 17:27 26.99692 77.28319 24041 ft 394 kts 220°
2026-05-06 17:27 26.97773 77.26226 23545 ft 379 kts 239°
2026-05-06 17:27 26.96657 77.23626 23042 ft 366 kts 259°
2026-05-06 17:27 26.96387 77.20833 22540 ft 357 kts 276°
2026-05-06 17:28 26.96968 77.18174 22026 ft 350 kts 297°
2026-05-06 17:28 26.98347 77.16005 21534 ft 347 kts 316°
2026-05-06 17:28 27.00366 77.14552 21026 ft 348 kts 337°
2026-05-06 17:28 27.02738 77.14045 20524 ft 351 kts 356°
2026-05-06 17:29 27.05175 77.14117 20023 ft 348 kts 359°
2026-05-06 17:29 27.07586 77.14238 19532 ft 346 kts 359°
2026-05-06 17:29 27.09972 77.14358 19288 ft 336 kts 359°
2026-05-06 17:29 27.12264 77.14475 19286 ft 325 kts 359°
2026-05-06 17:30 27.14518 77.14591 19251 ft 324 kts 359°
2026-05-06 17:30 27.16764 77.14698 19124 ft 322 kts 358°
2026-05-06 17:30 27.19002 77.14736 18999 ft 321 kts 357°
2026-05-06 17:30 27.21236 77.14758 18873 ft 321 kts 357°
2026-05-06 17:31 27.23465 77.14779 18748 ft 320 kts 357°
2026-05-06 17:31 27.25687 77.14799 18624 ft 319 kts 357°
2026-05-06 17:31 27.27908 77.14819 18501 ft 318 kts 357°
2026-05-06 17:31 27.30118 77.14835 18373 ft 318 kts 357°
2026-05-06 17:32 27.32331 77.14850 18248 ft 318 kts 357°
2026-05-06 17:32 27.34540 77.14862 18120 ft 317 kts 357°
2026-05-06 17:32 27.36744 77.14869 17994 ft 317 kts 357°
2026-05-06 17:32 27.38946 77.14850 17856 ft 316 kts 356°
2026-05-06 17:33 27.41136 77.14806 17795 ft 315 kts 355°
2026-05-06 17:33 27.43325 77.14748 17802 ft 315 kts 355°
2026-05-06 17:33 27.45518 77.14685 17805 ft 315 kts 355°
2026-05-06 17:33 27.47711 77.14629 17804 ft 315 kts 355°
2026-05-06 17:34 27.49906 77.14564 17646 ft 315 kts 355°
2026-05-06 17:34 27.52087 77.14459 17403 ft 313 kts 354°
2026-05-06 17:34 27.54224 77.14339 17158 ft 311 kts 354°
2026-05-06 17:34 27.56382 77.14212 16905 ft 310 kts 354°
2026-05-06 17:35 27.58557 77.14088 16647 ft 308 kts 354°
2026-05-06 17:35 27.60701 77.13967 16396 ft 308 kts 354°
2026-05-06 17:35 27.62823 77.13851 16141 ft 299 kts 354°
2026-05-06 17:36 27.66841 77.14136 15597 ft 299 kts
2026-05-06 17:36 27.68898 77.14526 15062 ft 300 kts
2026-05-06 17:36 27.70957 77.14915 14657 ft 300 kts
2026-05-06 17:36 27.73012 77.15307 14268 ft 300 kts
2026-05-06 17:37 27.75069 77.15702 13885 ft 299 kts
2026-05-06 17:37 27.77118 77.16095 13497 ft 298 kts
2026-05-06 17:37 27.79164 77.16486 13110 ft 298 kts
2026-05-06 17:37 27.81207 77.16876 12723 ft 298 kts
2026-05-06 17:38 27.83246 77.17266 12345 ft 297 kts
2026-05-06 17:38 27.85275 77.17657 11972 ft 295 kts
2026-05-06 17:38 27.87300 77.18045 11591 ft 294 kts
2026-05-06 17:38 27.89322 77.18431 11203 ft 294 kts
2026-05-06 17:39 27.91335 77.18816 10825 ft 293 kts
2026-05-06 17:39 27.93346 77.19200 10445 ft 293 kts
2026-05-06 17:39 27.95356 77.19584 10085 ft 294 kts
2026-05-06 17:39 27.97341 77.19963 9941 ft 284 kts
2026-05-06 17:40 27.99257 77.20332 9823 ft 275 kts
2026-05-06 17:40 28.01115 77.20692 9827 ft 269 kts
2026-05-06 17:40 28.02950 77.21046 9825 ft 265 kts
2026-05-06 17:40 28.04755 77.21397 9523 ft 262 kts
2026-05-06 17:41 28.06539 77.21745 9092 ft 261 kts
2026-05-06 17:41 28.08311 77.22088 8867 ft 261 kts
2026-05-06 17:41 28.09530 77.22323 8746 ft 263 kts
2026-05-06 17:41 28.11902 77.22779 8444 ft 262 kts
2026-05-06 17:42 28.13103 77.23012 8278 ft 258 kts
2026-05-06 17:42 28.15456 77.23471 8003 ft 257 kts
2026-05-06 17:42 28.16656 77.23705 7895 ft 261 kts
2026-05-06 17:42 28.18997 77.24165 7596 ft 259 kts
2026-05-06 17:43 28.20777 77.24513 7445 ft 257 kts
2026-05-06 17:43 28.21965 77.24745 7287 ft 257 kts
2026-05-06 17:43 28.23699 77.25081 7041 ft 254 kts
2026-05-06 17:43 28.25449 77.25418 6866 ft 254 kts
2026-05-06 17:44 28.27192 77.25758 6655 ft 254 kts
2026-05-06 17:44 28.28930 77.26100 6444 ft 254 kts
2026-05-06 17:44 28.30662 77.26442 6242 ft 254 kts
2026-05-06 17:44 28.32393 77.26780 6019 ft 251 kts
2026-05-06 17:45 28.34088 77.27111 5919 ft 241 kts
2026-05-06 17:45 28.35698 77.27427 5834 ft 229 kts
2026-05-06 17:45 28.37235 77.27730 5737 ft 219 kts
2026-05-06 17:45 28.38701 77.28017 5654 ft 208 kts
2026-05-06 17:46 28.40071 77.28301 5567 ft 192 kts 12°
2026-05-06 17:46 28.41274 77.28816 5532 ft 177 kts 19°
2026-05-06 17:46 28.42390 77.29331 5344 ft 171 kts 19°
2026-05-06 17:46 28.43476 77.29827 5174 ft 165 kts 19°
2026-05-06 17:47 28.44518 77.30304 5026 ft 158 kts 19°
2026-05-06 17:47 28.45525 77.30766 4905 ft 154 kts 19°
2026-05-06 17:47 28.46516 77.31222 4801 ft 153 kts 19°
2026-05-06 17:47 28.47502 77.31674 4770 ft 154 kts 19°
2026-05-06 17:48 28.48495 77.32129 4676 ft 154 kts 20°
2026-05-06 17:48 28.49486 77.32587 4581 ft 153 kts 19°
2026-05-06 17:48 28.50472 77.33039 4467 ft 153 kts 19°
2026-05-06 17:48 28.51456 77.33491 4341 ft 152 kts 19°
2026-05-06 17:49 28.52439 77.33943 4237 ft 152 kts 19°
2026-05-06 17:49 28.53423 77.34395 4112 ft 152 kts 17°
2026-05-06 17:49 28.54450 77.34555 3997 ft 149 kts 351°
2026-05-06 17:49 28.55418 77.34184 3883 ft 147 kts 326°
2026-05-06 17:50 28.56141 77.33382 3767 ft 146 kts 301°
2026-05-06 17:50 28.56490 77.32306 3640 ft 146 kts 277°
2026-05-06 17:50 28.56523 77.31146 3527 ft 147 kts 272°
2026-05-06 17:50 28.56549 77.30002 3409 ft 147 kts 272°
2026-05-06 17:51 28.56577 77.28842 3290 ft 147 kts 272°
2026-05-06 17:51 28.56606 77.27680 3182 ft 146 kts 272°
2026-05-06 17:51 28.56634 77.26516 3057 ft 147 kts 272°
2026-05-06 17:51 28.56661 77.25360 2937 ft 146 kts 272°
2026-05-06 17:52 28.56689 77.24232 2884 ft 141 kts 272°
2026-05-06 17:52 28.56717 77.23128 2734 ft 138 kts 271°
2026-05-06 17:52 28.56744 77.22044 2566 ft 137 kts 270°
2026-05-06 17:52 28.56770 77.20966 2391 ft 137 kts 269°
2026-05-06 17:53 28.56796 77.19876 2212 ft 139 kts 268°
2026-05-06 17:53 28.56822 77.18765 2028 ft 142 kts 267°
2026-05-06 17:53 28.56850 77.17630 1844 ft 144 kts 274°
2026-05-06 17:53 28.56875 77.16515 1651 ft 142 kts 275°
2026-05-06 17:54 28.56901 77.15390 1465 ft 142 kts 275°
2026-05-06 17:54 28.56928 77.14266 1275 ft 143 kts 275°
2026-05-06 17:54 28.56954 77.13147 1083 ft 140 kts 274°
2026-05-06 17:54 28.56979 77.12036 899 ft 140 kts 275°
2026-05-06 17:55 28.57006 77.10929 754 ft 137 kts 271°
2026-05-06 17:55 28.57023 77.10082 748 ft 65 kts 270°
2026-05-06 17:55 28.57027 77.09722 750 ft 35 kts 271°
2026-05-06 17:55 28.57036 77.09444 751 ft 35 kts 272°
2026-05-06 17:56 28.56967 77.09221 750 ft 21 kts 241°
2026-05-06 17:56 28.56906 77.09096 749 ft 20 kts 250°
2026-05-06 17:56 28.56900 77.08930 750 ft 23 kts 270°
2026-05-06 17:56 28.56902 77.08792 750 ft 12 kts 271°
2026-05-06 17:57 28.56891 77.08685 747 ft 15 kts 238°
2026-05-06 17:57 28.56806 77.08598 748 ft 18 kts 218°
2026-05-06 17:57 28.56701 77.08504 747 ft 20 kts 236°
2026-05-06 17:57 28.56627 77.08366 750 ft 20 kts 243°
2026-05-06 17:58 28.56565 77.08233 750 ft 20 kts 245°
2026-05-06 17:58 28.56500 77.08085 749 ft 17 kts 241°
2026-05-06 17:58 28.56455 77.08007 748 ft 12 kts 220°
2026-05-06 17:58 28.56368 77.07976 748 ft 14 kts 194°
2026-05-06 17:59 28.56264 77.07947 750 ft 17 kts 193°
2026-05-06 17:59 28.56143 77.07918 750 ft 19 kts 188°
2026-05-06 17:59 28.56007 77.07878 750 ft 22 kts 198°
2026-05-06 17:59 28.55852 77.07826 749 ft 25 kts 194°
2026-05-06 18:00 28.55678 77.07781 749 ft 19 kts 192°
2026-05-06 18:00 28.55586 77.07759 751 ft 15 kts 194°
2026-05-06 18:00 28.55481 77.07719 751 ft 17 kts 198°
2026-05-06 18:00 28.55376 77.07687 748 ft 15 kts 192°
2026-05-06 18:01 28.55265 77.07659 750 ft 18 kts 191°
2026-05-06 18:01 28.55161 77.07653 748 ft 15 kts 141°
2026-05-06 18:01 28.55126 77.07776 751 ft 18 kts 104°
2026-05-06 18:01 28.55092 77.07928 751 ft 21 kts 103°
2026-05-06 18:02 28.55052 77.08102 751 ft 24 kts 109°
2026-05-06 18:02 28.55005 77.08297 749 ft 27 kts 105°
2026-05-06 18:02 28.54956 77.08513 750 ft 29 kts 104°
2026-05-06 18:02 28.54906 77.08730 751 ft 23 kts 105°
2026-05-06 18:03 28.54863 77.08918 750 ft 26 kts 104°
2026-05-06 18:03 28.54825 77.09083 751 ft 19 kts 104°
2026-05-06 18:03 28.54833 77.09188 751 ft 15 kts 29°
2026-05-06 18:03 28.54933 77.09142 750 ft 18 kts 329°
2026-05-06 18:04 28.55040 77.09068 747 ft 15 kts 328°
2026-05-06 18:04 28.55097 77.09025 748 ft 8 kts 315°
2026-05-06 18:04 28.55096 77.08987 750 ft 5 kts 246°
2026-05-06 18:04 28.55083 77.08959 751 ft 3 kts 241°
2026-05-06 18:05 28.55081 77.08954 751 ft 0 kts 240°
2026-05-06 18:05 28.55080 77.08953 750 ft 0 kts 240°